Date String (YYYY-MM-DD hh:mm:ss) UTC,Instrument flags,absolute air pressure of the measurement (hPa),sample flow rate (lpm),inlet stack bypass flow (lpm),air temperature of the measurement (°C),ambient temperature measured by the external sensor (°C),aerosol sample conditioner tube jacket temperature (°C),OPC LED temperature (°C),internal box temperature (°C),relative humidity of the measurement (%),span deviation,mass concentration of particles derived from Lorenz-Mie calculation of OPC scattering (μg/m³),mass concentration of particles derived from Lorenz-Mie calculation of OPC scattering (μg/m³),mass concentration of particles derived from Lorenz-Mie calculation of OPC scattering (μg/m³)
DateTimeUTC,F1_M11,P_M11,Q1_M11,Q2_M11,T1_M11,T2_M11,T3_M11,T4_M11,T5_M11,U1_M11,ZSPAN_M11,X2_M11,X0_M11,X1_M11
2023-07-22 16:00:00,SystemResetWarning,0836.2,5.00,000.00,029.6,027.6,000.0,038.0,030.9,31.2,0000.0,0005.12,0010.44,0004.69
2023-07-22 16:01:00,SystemResetWarning,0836.2,5.00,000.00,029.7,027.8,000.0,038.0,031.0,31.0,0000.0,0005.10,0009.63,0004.69
2023-07-22 16:02:00,SystemResetWarning,0836.2,4.99,000.00,029.7,027.7,000.0,037.9,031.0,32.8,0000.0,0005.07,0009.35,0004.68
2023-07-22 16:03:00,SystemResetWarning,0836.2,4.98,000.00,029.7,026.3,000.0,037.8,030.8,33.0,0000.0,0005.07,0009.39,0004.69
2023-07-22 16:04:00,SystemResetWarning,0836.2,5.01,000.00,029.6,025.3,000.0,037.7,030.6,32.5,0000.0,0005.07,0009.77,0004.69
2023-07-22 16:05:00,SystemResetWarning,0836.1,4.99,000.00,029.5,025.4,000.0,037.7,030.5,34.9,0000.0,0005.07,0009.82,0004.68
2023-07-22 16:06:00,SystemResetWarning,0836.2,5.03,000.00,029.5,025.7,000.0,037.7,030.5,34.5,0000.0,0005.07,0009.71,0004.67
2023-07-22 16:07:00,SystemResetWarning,0836.2,4.97,000.00,029.6,026.1,000.0,037.8,030.6,32.5,0000.0,0005.07,0009.53,0004.67
2023-07-22 16:08:00,SystemResetWarning,0836.2,5.01,000.00,029.6,026.5,000.0,037.8,030.7,31.9,0000.0,0005.04,0009.23,0004.66
2023-07-22 16:09:00,SystemResetWarning,0836.2,5.02,000.00,029.6,026.8,000.0,037.8,030.7,31.9,0000.0,0005.03,0009.18,0004.66
2023-07-22 16:10:00,SystemResetWarning,0836.2,4.99,000.00,029.7,027.1,000.0,037.8,030.8,32.4,0000.0,0005.03,0009.13,0004.67
2023-07-22 16:11:00,SystemResetWarning,0836.2,5.00,000.00,029.7,027.4,000.0,037.9,030.9,32.5,0000.0,0005.02,0009.03,0004.66
2023-07-22 16:12:00,SystemResetWarning,0836.2,5.00,000.00,029.7,027.6,000.0,037.9,030.9,32.9,0000.0,0005.02,0008.97,0004.66
2023-07-22 16:13:00,SystemResetWarning,0836.2,5.00,000.00,029.8,027.6,000.0,037.9,031.0,31.4,0000.0,0005.02,0008.89,0004.65
2023-07-22 16:14:00,SystemResetWarning,0836.1,4.98,000.00,029.8,026.4,000.0,037.8,030.8,30.4,0000.0,0005.00,0008.84,0004.64
2023-07-22 16:15:00,SystemResetWarning,0836.1,5.01,000.00,029.7,025.3,000.0,037.7,030.6,32.2,0000.0,0004.99,0008.63,0004.61
2023-07-22 16:16:00,SystemResetWarning,0836.1,5.02,000.00,029.6,025.2,000.0,037.7,030.5,32.4,0000.0,0004.98,0008.17,0004.61
2023-07-22 16:17:00,SystemResetWarning,0836.1,4.98,000.00,029.5,025.5,000.0,037.7,030.4,31.8,0000.0,0004.98,0008.17,0004.63
2023-07-22 16:18:00,SystemResetWarning,0836.1,5.00,000.00,029.5,025.9,000.0,037.7,030.4,32.5,0000.0,0004.98,0007.99,0004.65
2023-07-22 16:19:00,SystemResetWarning,0836.1,5.01,000.00,029.5,026.3,000.0,037.8,030.5,34.0,0000.0,0004.97,0007.67,0004.66
2023-07-22 16:20:00,SystemResetWarning,0836.1,5.01,000.00,029.5,026.7,000.0,037.8,030.6,33.2,0000.0,0004.98,0007.75,0004.67
2023-07-22 16:21:00,SystemResetWarning,0836.1,5.01,000.00,029.5,027.0,000.0,037.8,030.7,33.5,0000.0,0004.96,0008.15,0004.66
2023-07-22 16:22:00,SystemResetWarning,0836.1,5.00,000.00,029.5,027.3,000.0,037.8,030.8,33.8,0000.0,0004.99,0008.32,0004.67
2023-07-22 16:23:00,SystemResetWarning,0836.1,4.99,000.00,029.5,027.5,000.0,037.8,030.8,33.8,0000.0,0005.00,0008.37,0004.68
2023-07-22 16:24:00,SystemResetWarning,0836.1,4.99,000.00,029.5,027.3,000.0,037.8,030.9,33.7,0000.0,0005.01,0008.45,0004.69
2023-07-22 16:25:00,SystemResetWarning,0836.1,4.99,000.00,029.5,025.8,000.0,037.7,030.6,33.7,0000.0,0005.05,0008.72,0004.72
2023-07-22 16:26:00,SystemResetWarning,0836.1,5.00,000.00,029.4,025.0,000.0,037.6,030.4,33.7,0000.0,0005.09,0008.85,0004.76
2023-07-22 16:27:00,SystemResetWarning,0836.1,5.00,000.00,029.3,025.2,000.0,037.5,030.3,34.7,0000.0,0005.11,0008.89,0004.77
2023-07-22 16:28:00,SystemResetWarning,0836.1,5.00,000.00,029.3,025.5,000.0,037.6,030.3,34.1,0000.0,0005.10,0009.36,0004.76
2023-07-22 16:29:00,SystemResetWarning,0836.1,4.99,000.00,029.4,026.0,000.0,037.6,030.4,33.7,0000.0,0005.09,0010.07,0004.74
2023-07-22 16:30:00,SystemResetWarning,0836.1,5.00,000.00,029.4,026.4,000.0,037.6,030.5,32.5,0000.0,0005.13,0010.20,0004.74
2023-07-22 16:31:00,SystemResetWarning,0836.1,5.01,000.00,029.5,026.7,000.0,037.7,030.6,32.3,0000.0,0005.13,0010.12,0004.75
2023-07-22 16:32:00,SystemResetWarning,0836.1,5.01,000.00,029.5,027.0,000.0,037.7,030.7,32.4,0000.0,0005.13,0009.77,0004.77
2023-07-22 16:33:00,SystemResetWarning,0836.1,4.99,000.00,029.6,027.3,000.0,037.7,030.7,32.4,0000.0,0005.17,0009.68,0004.78
2023-07-22 16:34:00,SystemResetWarning,0836.1,5.00,000.00,029.6,027.5,000.0,037.7,030.8,33.3,0000.0,0005.20,0009.74,0004.80
2023-07-22 16:35:00,SystemResetWarning,0836.1,5.00,000.00,029.6,027.5,000.0,037.7,030.9,31.5,0000.0,0005.25,0009.83,0004.82
2023-07-22 16:36:00,SystemResetWarning,0836.1,4.98,000.00,029.6,026.2,000.0,037.6,030.6,30.7,0000.0,0005.28,0009.63,0004.84
2023-07-22 16:37:00,SystemResetWarning,0836.1,5.01,000.00,029.6,025.2,000.0,037.5,030.5,31.6,0000.0,0005.29,0009.49,0004.86
2023-07-22 16:38:00,SystemResetWarning,0836.1,5.01,000.00,029.5,025.2,000.0,037.5,030.4,31.7,0000.0,0005.32,0009.47,0004.89
2023-07-22 16:39:00,SystemResetWarning,0836.1,4.99,000.00,029.4,025.5,000.0,037.6,030.3,31.2,0000.0,0005.37,0009.27,0004.93
2023-07-22 16:40:00,SystemResetWarning,0836.1,4.99,000.00,029.4,025.9,000.0,037.6,030.3,31.4,0000.0,0005.41,0009.04,0004.95
2023-07-22 16:41:00,SystemResetWarning,0836.1,5.01,000.00,029.4,026.3,000.0,037.6,030.4,32.2,0000.0,0005.41,0009.01,0004.97
2023-07-22 16:42:00,SystemResetWarning,0836.1,5.00,000.00,029.4,026.7,000.0,037.7,030.5,33.3,0000.0,0005.40,0008.99,0004.97
2023-07-22 16:43:00,SystemResetWarning,0836.1,5.01,000.00,029.4,027.0,000.0,037.7,030.6,34.1,0000.0,0005.43,0009.06,0004.98
2023-07-22 16:44:00,SystemResetWarning,0836.1,5.00,000.00,029.4,027.3,000.0,037.7,030.7,33.5,0000.0,0005.43,0009.07,0004.99
2023-07-22 16:45:00,SystemResetWarning,0836.1,5.00,000.00,029.4,027.5,000.0,037.7,030.7,32.0,0000.0,0005.44,0009.07,0004.99
2023-07-22 16:46:00,SystemResetWarning,0836.1,5.00,000.00,029.5,027.6,000.0,037.7,030.8,32.4,0000.0,0005.44,0009.03,0004.99
2023-07-22 16:47:00,SystemResetWarning,0836.1,4.98,000.00,029.5,026.5,000.0,037.6,030.6,32.5,0000.0,0005.44,0009.06,0004.99
2023-07-22 16:48:00,SystemResetWarning,0836.1,5.00,000.00,029.4,025.3,000.0,037.5,030.4,31.7,0000.0,0005.43,0009.08,0004.98
2023-07-22 16:49:00,SystemResetWarning,0836.1,5.00,000.00,029.3,025.2,000.0,037.4,030.4,32.1,0000.0,0005.40,0009.06,0004.96
2023-07-22 16:50:00,SystemResetWarning,0836.1,5.01,000.00,029.2,025.5,000.0,037.5,030.3,32.8,0000.0,0005.38,0009.26,0004.93
2023-07-22 16:51:00,SystemResetWarning,0836.1,5.00,000.00,029.2,025.9,000.0,037.5,030.3,32.4,0000.0,0005.36,0008.70,0004.92
2023-07-22 16:52:00,SystemResetWarning,0836.1,5.00,000.00,029.2,026.3,000.0,037.5,030.4,31.6,0000.0,0005.34,0008.58,0004.92
2023-07-22 16:53:00,SystemResetWarning,0836.1,5.00,000.00,029.2,026.6,000.0,037.5,030.5,32.0,0000.0,0005.33,0008.64,0004.92
2023-07-22 16:54:00,SystemResetWarning,0836.1,5.00,000.00,029.2,027.0,000.0,037.6,030.6,31.9,0000.0,0005.32,0008.72,0004.92
2023-07-22 16:55:00,SystemResetWarning,0836.1,5.00,000.00,029.2,027.2,000.0,037.6,030.6,32.0,0000.0,0005.30,0009.42,0004.91
2023-07-22 16:56:00,SystemResetWarning,0836.1,5.00,000.00,029.3,027.5,000.0,037.6,030.7,31.8,0000.0,0005.28,0009.48,0004.91
2023-07-22 16:57:00,SystemResetWarning,0836.1,4.99,000.00,029.3,027.3,000.0,037.5,030.7,31.2,0000.0,0005.27,0009.39,0004.92
2023-07-22 16:58:00,SystemResetWarning,0836.1,4.99,000.00,029.3,025.9,000.0,037.4,030.5,30.6,0000.0,0005.25,0009.52,0004.90
2023-07-22 16:59:00,SystemResetWarning,0836.1,5.00,000.00,029.2,025.1,000.0,037.3,030.4,32.5,0000.0,0005.25,0009.55,0004.90
